Location: Bannatyne
(13.0833°N, 59.5333°W)
Time: 01:45:57
(UTC+00:00)

Transit 2A - Pass Details

Date: 02 February 2020
Orbit: 599 x 959 km, 66.7° (Epoch: 25 February)

Event Time Altitude Azimuth Distance (km) Brightness Sun altitude
Rises 19:53:38 0° 177° (S) 3,081 9.4 27.6°
Reaches altitude 10° 19:56:25 10° 164° (SSE) 2,104 8.5 27.0°
Maximum altitude 20:00:13 24° 110° (ESE) 1,322 7.1 26.2°
Drops below altitude 10° 20:03:48 10° 55° (NE) 1,981 7.7 25.4°
Sets 20:06:19 0° 42° (NE) 2,858 8.4 24.8°
